Regional Weather Roundup
Issued by NWS Little Rock, AR

Home | Current Version | Previous Version | Graphics & Text | Print | Product List | Glossary On
Versions: 1 2 3 4 5 6 7 8 9 10 11 12 13 14 15 16 17 18 19 20 21 22 23 24 25 26 27 28 29 30 31 32 33 34 35 36 37 38 39 40 41 42 43 44 45 46 47 48 49 50
584
ASUS44 KLZK 280505
RWRLZK

WEATHER ROUNDUP FOR ARKANSAS
NATIONAL WEATHER SERVICE LITTLE ROCK AR
1100 PM CST MON FEB 27 2017

NOTE: "FAIR" INDICATES FEW OR NO CLOUDS BELOW 12,000 FEET WITH NO
SIGNIFICANT WEATHER AND/OR OBSTRUCTIONS TO VISIBILITY.

ARZ001-003-010-029-280600-
NORTHWEST ARKANSAS

CITY           SKY/WX    TMP DP  RH WIND       PRES   REMARKS
FAYETTEVILLE   CLOUDY    57  56  96 S13       29.93S
FORT SMITH     CLOUDY    61  55  81 E8        29.94S
HARRISON       CLOUDY    57  54  89 S13       29.96S
BENTONVILLE    CLOUDY    59  54  82 S12G20    29.92F
ROGERS         CLOUDY    58  55  90 S9        29.92F
SILOAM SPGS    CLOUDY    59  54  82 S12       29.91S
HIGHFILL       CLOUDY    59  56  89 S16       29.91F
$$

ARZ004-005-016-280600-
NORTH CENTRAL ARKANSAS

CITY           SKY/WX    TMP DP  RH WIND       PRES   REMARKS
BATESVILLE     CLOUDY    57  52  82 S5        30.03S
FLIPPIN        CLOUDY    57  46  67 SE6       29.96F
MTN HOME       CLOUDY    54  50  86 S6        29.98F
$$

ARZ040-041-280600-
WEST CENTRAL ARKANSAS

CITY           SKY/WX    TMP DP  RH WIND       PRES   REMARKS
MENA           CLOUDY    63  63 100 SE7       29.97F
MOUNT IDA      CLOUDY    59  56  89 VRB5      29.97F
$$

ARZ009-017-025-026-028-280600-
NORTHEAST ARKANSAS

CITY           SKY/WX    TMP DP  RH WIND       PRES   REMARKS
CORNING        CLOUDY    57  55  94 S8        30.04F
JONESBORO      CLOUDY    57  52  83 S9        30.04S
NEWPORT        CLOUDY    56  53  90 S9        30.03F
WALNUT RIDGE   CLOUDY    55  50  82 S13       30.03F
BLYTHEVILLE    PTCLDY    56  52  86 S10       30.06S
$$

ARZ022-023-033-042-044-280600-
CENTRAL ARKANSAS

CITY           SKY/WX    TMP DP  RH WIND       PRES   REMARKS
LITTLE ROCK    LGT RAIN  56  56 100 S8        30.02F
N LITTLE ROCK    N/A     56  54  94 S8        30.02F
JACKSONVILLE   DRIZZLE   57  57  99 SE8       30.00F
SEARCY         CLOUDY    56  54  93 SE5       30.03F
HOT SPRINGS    CLOUDY    60  56  86 SE6       30.00F
RUSSELLVILLE   CLOUDY    61  54  77 E5        29.98S
$$

ARZ036-280600-
EAST ARKANSAS

CITY           SKY/WX    TMP DP  RH WIND       PRES   REMARKS
WEST MEMPHIS   CLOUDY    57  54  89 S15       30.05F
$$

ARZ050-053-066-070-073-280600-
SOUTHWEST ARKANSAS

CITY           SKY/WX    TMP DP  RH WIND       PRES   REMARKS
ARKADELPHIA    CLOUDY    58  56  93 CALM      30.01F
CAMDEN         CLEAR     57  54  88 SE5       30.01S
TEXARKANA      CLOUDY    61  60  97 SE8       29.98R
EL DORADO      CLOUDY    60  58  92 SE8       30.00F
DE QUEEN       CLOUDY    58  58 100 E7        29.95F FOG
$$

ARZ056-057-069-280600-
SOUTHEAST ARKANSAS

CITY           SKY/WX    TMP DP  RH WIND       PRES   REMARKS
PINE BLUFF     MOCLDY    57  56  96 SE7       30.03F
STUTTGART      MOCLDY    57  48  72 SE10      30.04F
MONTICELLO     PTCLDY    60  57  89 SE9       30.03F

$$






USA.gov is the U.S. government's official web portal to all federal, state and local government web resources and services.